Total_Precipitation_Accumulation
0.28 0.35 0.33 0.24 0.17 0.15 0.20 0.26 0.29 0.23 0.19 0.26 0.39 0.44 0.35 0.35 0.38 0.38 0.48 0.46 0.38 0.32 0.26 0.25 0.26 0.25 0.27 0.31 0.36 0.38 0.40 0.45 0.53 0.64 0.77 0.93 1.06 1.15
0.33 0.35 0.36 0.35 0.32 0.24 0.23 0.26 0.30 0.30 0.27 0.25 0.39 0.47 0.49 0.39 0.41 0.45 0.47 0.44 0.36 0.32 0.26 0.22 0.23 0.23 0.22 0.21 0.23 0.27 0.28 0.28 0.33 0.40 0.46 0.53 0.60 0.70
0.57 0.50 0.44 0.44 0.43 0.37 0.33 0.30 0.30 0.33 0.37 0.39 0.48 0.59 0.63 0.54 0.54 0.51 0.46 0.46 0.37 0.33 0.29 0.25 0.22 0.21 0.22 0.21 0.19 0.17 0.20 0.20 0.20 0.22 0.26 0.32 0.34 0.38
0.68 0.72 0.63 0.56 0.51 0.43 0.39 0.36 0.35 0.38 0.44 0.53 0.60 0.67 0.68 0.67 0.63 0.49 0.40 0.38 0.40 0.38 0.32 0.30 0.28 0.25 0.23 0.21 0.19 0.17 0.16 0.15 0.15 0.15 0.16 0.19 0.24 0.27
0.44 0.65 0.74 0.71 0.59 0.51 0.45 0.40 0.39 0.40 0.42 0.47 0.58 0.74 0.84 0.83 0.62 0.40 0.34 0.36 0.36 0.43 0.39 0.31 0.28 0.28 0.25 0.21 0.18 0.17 0.15 0.15 0.14 0.14 0.13 0.12 0.13 0.15
0.21 0.34 0.52 0.69 0.68 0.60 0.51 0.45 0.45 0.47 0.48 0.49 0.58 0.76 0.93 0.98 0.75 0.47 0.37 0.35 0.34 0.30 0.30 0.27 0.26 0.25 0.24 0.22 0.19 0.17 0.16 0.15 0.15 0.13 0.13 0.12 0.10 0.09
0.15 0.17 0.23 0.38 0.53 0.60 0.54 0.50 0.49 0.50 0.52 0.52 0.59 0.76 0.91 0.99 0.77 0.55 0.43 0.39 0.37 0.34 0.26 0.21 0.19 0.18 0.18 0.20 0.21 0.18 0.15 0.15 0.15 0.14 0.12 0.11 0.10 0.09
0.25 0.23 0.19 0.18 0.26 0.38 0.46 0.49 0.49 0.47 0.51 0.53 0.58 0.73 0.86 0.90 0.95 0.78 0.58 0.41 0.34 0.32 0.30 0.27 0.22 0.21 0.18 0.16 0.19 0.19 0.17 0.15 0.13 0.13 0.12 0.11 0.09 0.08
0.37 0.37 0.23 0.13 0.18 0.25 0.32 0.38 0.40 0.38 0.39 0.46 0.54 0.67 0.94 1.10 1.19 0.94 0.74 0.62 0.49 0.42 0.36 0.32 0.29 0.26 0.21 0.20 0.24 0.21 0.19 0.16 0.14 0.12 0.10 0.10 0.09 0.08
0.33 0.41 0.35 0.29 0.28 0.32 0.32 0.31 0.31 0.30 0.28 0.30 0.39 0.58 0.84 1.19 1.35 1.33 1.21 1.00 0.86 0.68 0.49 0.38 0.32 0.25 0.23 0.20 0.23 0.23 0.20 0.17 0.15 0.13 0.10 0.09 0.08 0.07
0.30 0.35 0.40 0.39 0.31 0.25 0.30 0.27 0.25 0.26 0.23 0.24 0.31 0.50 0.69 0.94 1.27 1.42 1.36 1.14 0.93 0.71 0.50 0.37 0.31 0.26 0.22 0.19 0.19 0.23 0.22 0.19 0.17 0.15 0.13 0.10 0.08 0.07
0.37 0.43 0.46 0.42 0.31 0.21 0.27 0.31 0.25 0.23 0.23 0.23 0.26 0.34 0.49 0.66 0.95 1.10 1.06 0.98 0.83 0.66 0.44 0.34 0.28 0.28 0.23 0.19 0.15 0.14 0.16 0.19 0.18 0.16 0.13 0.11 0.08 0.04
0.34 0.37 0.47 0.42 0.33 0.22 0.25 0.29 0.24 0.25 0.30 0.29 0.29 0.34 0.46 0.60 0.74 0.94 0.98 0.86 0.74 0.58 0.42 0.35 0.28 0.24 0.20 0.16 0.14 0.13 0.11 0.11 0.11 0.12 0.13 0.11 0.08 0.04
0.44 0.47 0.54 0.51 0.40 0.32 0.28 0.27 0.21 0.19 0.27 0.32 0.31 0.31 0.38 0.47 0.64 0.83 0.97 0.94 0.81 0.71 0.60 0.50 0.38 0.29 0.19 0.13 0.10 0.10 0.12 0.11 0.09 0.07 0.07 0.09 0.08 0.05
0.51 0.65 0.69 0.65 0.55 0.46 0.39 0.36 0.27 0.22 0.25 0.27 0.28 0.27 0.30 0.41 0.63 0.83 0.99 1.06 0.98 0.86 0.78 0.63 0.51 0.41 0.31 0.17 0.09 0.07 0.07 0.10 0.10 0.08 0.06 0.04 0.03 0.03
0.42 0.62 0.75 0.81 0.77 0.66 0.57 0.51 0.37 0.30 0.29 0.29 0.30 0.34 0.40 0.51 0.65 0.73 0.83 0.93 0.94 0.89 0.78 0.69 0.57 0.49 0.40 0.27 0.14 0.08 0.04 0.05 0.07 0.08 0.06 0.04 0.03 0.02
0.34 0.62 0.83 0.98 1.01 0.99 0.86 0.76 0.63 0.50 0.41 0.40 0.42 0.43 0.45 0.51 0.59 0.69 0.77 0.80 0.75 0.67 0.64 0.65 0.62 0.56 0.50 0.39 0.22 0.11 0.06 0.03 0.03 0.04 0.06 0.06 0.04 0.03
0.31 0.59 0.82 0.99 1.05 1.15 1.14 1.04 0.87 0.69 0.58 0.54 0.50 0.49 0.49 0.47 0.51 0.64 0.75 0.79 0.71 0.62 0.55 0.51 0.51 0.50 0.50 0.44 0.31 0.15 0.07 0.04 0.03 0.02 0.03 0.04 0.04 0.03
0.33 0.51 0.61 0.75 0.91 1.08 1.15 1.12 0.95 0.79 0.76 0.72 0.62 0.56 0.55 0.52 0.49 0.56 0.69 0.76 0.77 0.70 0.63 0.51 0.41 0.37 0.36 0.33 0.26 0.17 0.10 0.05 0.03 0.03 0.02 0.02 0.02 0.01
0.29 0.36 0.42 0.53 0.70 0.93 1.08 1.12 1.03 0.89 0.85 0.84 0.78 0.68 0.63 0.56 0.50 0.48 0.58 0.66 0.70 0.71 0.69 0.59 0.41 0.30 0.26 0.23 0.21 0.18 0.11 0.09 0.05 0.04 0.03 0.03 0.02 0.02
0.26 0.29 0.32 0.41 0.54 0.73 0.93 1.05 1.06 0.97 0.87 0.87 0.85 0.75 0.70 0.63 0.53 0.47 0.52 0.62 0.68 0.67 0.60 0.53 0.42 0.38 0.40 0.36 0.31 0.27 0.19 0.12 0.10 0.06 0.04 0.03 0.02 0.01
0.29 0.28 0.30 0.37 0.49 0.68 0.84 0.93 0.98 0.96 0.89 0.87 0.84 0.76 0.70 0.66 0.57 0.52 0.50 0.52 0.56 0.60 0.60 0.61 0.62 0.53 0.47 0.40 0.32 0.27 0.26 0.18 0.12 0.10 0.08 0.04 0.01 0.01
0.32 0.28 0.29 0.34 0.45 0.62 0.75 0.84 0.86 0.87 0.85 0.82 0.80 0.73 0.68 0.66 0.64 0.59 0.52 0.50 0.53 0.60 0.72 0.75 0.70 0.60 0.48 0.42 0.37 0.32 0.28 0.25 0.17 0.09 0.05 0.03 0.02 0.01